TimeCDT,TemperatureF,Dew PointF,Humidity,Sea Level PressureIn,VisibilityMPH,Wind Direction,Wind SpeedMPH,Gust SpeedMPH,PrecipitationIn,Events,Conditions,WindDirDegrees,DateUTC
12:53 AM,64.0,53.1,67,30.09,10.0,SW,4.6,-,N/A,,Clear,220,2013-05-15 05:53:00
1:53 AM,64.0,53.1,67,30.09,10.0,WSW,3.5,-,N/A,,Clear,250,2013-05-15 06:53:00
2:53 AM,64.9,53.1,65,30.10,10.0,West,3.5,-,N/A,,Clear,260,2013-05-15 07:53:00
3:53 AM,64.9,53.1,65,30.10,10.0,West,5.8,-,N/A,,Clear,260,2013-05-15 08:53:00
4:53 AM,64.9,54.0,68,30.11,10.0,West,5.8,-,N/A,,Clear,270,2013-05-15 09:53:00
5:53 AM,63.0,53.1,70,30.12,10.0,Calm,Calm,-,N/A,,Clear,0,2013-05-15 10:53:00
6:53 AM,64.9,54.0,68,30.13,10.0,WSW,3.5,-,N/A,,Clear,250,2013-05-15 11:53:00
7:53 AM,68.0,55.0,63,30.15,10.0,WSW,5.8,-,N/A,,Clear,250,2013-05-15 12:53:00
8:53 AM,73.0,53.1,49,30.16,10.0,West,8.1,-,N/A,,Clear,260,2013-05-15 13:53:00
9:53 AM,75.0,52.0,44,30.16,10.0,West,6.9,-,N/A,,Clear,260,2013-05-15 14:53:00
10:53 AM,78.1,54.0,43,30.15,10.0,WSW,8.1,-,N/A,,Clear,240,2013-05-15 15:53:00
11:53 AM,80.1,54.0,40,30.14,10.0,WSW,6.9,-,N/A,,Clear,250,2013-05-15 16:53:00
12:53 PM,82.0,53.1,37,30.12,10.0,West,11.5,19.6,N/A,,Clear,260,2013-05-15 17:53:00
1:53 PM,82.9,55.0,38,30.09,10.0,SW,10.4,-,N/A,,Clear,220,2013-05-15 18:53:00
2:53 PM,84.0,54.0,35,30.07,10.0,SW,11.5,-,N/A,,Clear,230,2013-05-15 19:53:00
3:53 PM,84.0,53.1,34,30.04,10.0,WSW,10.4,-,N/A,,Clear,250,2013-05-15 20:53:00
4:53 PM,84.9,55.0,36,30.02,10.0,SW,8.1,-,N/A,,Clear,230,2013-05-15 21:53:00
5:53 PM,82.0,53.1,37,30.01,10.0,SW,9.2,-,N/A,,Clear,230,2013-05-15 22:53:00
6:53 PM,79.0,53.1,40,30.00,10.0,SW,8.1,-,N/A,,Clear,220,2013-05-15 23:53:00
7:53 PM,75.9,54.0,46,30.00,10.0,WSW,4.6,-,N/A,,Clear,240,2013-05-16 00:53:00
8:53 PM,73.0,57.0,57,30.00,10.0,SSW,3.5,-,N/A,,Clear,210,2013-05-16 01:53:00
9:53 PM,73.0,57.0,57,30.01,10.0,Calm,Calm,-,N/A,,Clear,0,2013-05-16 02:53:00
10:53 PM,70.0,57.9,65,30.01,10.0,Calm,Calm,-,N/A,,Clear,0,2013-05-16 03:53:00
11:53 PM,69.1,60.1,73,30.01,10.0,SW,4.6,-,N/A,,Clear,220,2013-05-16 04:53:00